sat.trackr.live / text

‹ back to catalog

STARLINK-35156

NORAD 65607 · 2025-207R

PAYLOAD ACTIVE UNKNOWN

§ Identity

Operator
Country
US
Launch date
2025-09-13
Launch site
AFWTR
Launch vehicle
Mass (kg)
RCS (m²)

Purposes: comms

External: N2YO · Heavens-Above · Gunter

§ Orbital elements

Epoch: 2026-09-20T22:00:03.000096Z

Period
93.91 min
Inclination
97.2882°
Eccentricity
0.0002262
Mean motion
15.33417571 rev/d
Perigee alt
464.1 km
Apogee alt
467.2 km
Semi-major
6,843.8 km
B*
2.8404e-5
RAAN
326.4396°
Arg perigee
86.2213°
Mean anomaly
224.3899°
Rev number
579

§ Raw data

STARLINK-351561 65607U 25207R   26263.91670139  .00000841  00000+0  28404-4 0  99992 65607  97.2882 326.4396 0002262  86.2213 224.3899 15.33417571  5794

JSON: /api/v1/satellites/65607 · /tle

For live sub-satellite position, see the globe view (requires WebGL).

§ Visibility from observer

Set your observer location to see the next 7 days of passes ≥ 10°. The values pass through the URL so the page stays shareable.

No JS? Fill the form by hand. The geolocation button needs JavaScript.